| time (UTC) | temp C | wind direction | speed KPH | gust KPH | rain 1hr cm | rain 24hr cm | rain mn cm | humidity % | barometer mb |
| 20260505094217 | 18 | 154 | 1.6 | 4.8 | 0.00 | 0.00 | 0.00 | 81 | 1006.2 |
| 20260505093003 | 18 | 143 | 4.8 | 12.9 | 0.00 | 0.00 | 0.00 | 81 | 1006.2 |
| 20260505092003 | 17 | 186 | 1.6 | 4.8 | 0.00 | 0.00 | 0.00 | 80 | 1006.4 |
| 20260505091003 | 17 | 183 | 1.6 | 6.4 | 0.00 | 0.00 | 0.00 | 79 | 1006.4 |
| 20260505090004 | 17 | 148 | 1.6 | 6.4 | 0.00 | 0.00 | 0.00 | 79 | 1006.2 |
| 20260505085217 | 17 | 154 | 3.2 | 6.4 | 0.00 | 0.00 | 0.00 | 79 | 1006.2 |
| 20260505084003 | 17 | 146 | 4.8 | 12.9 | 0.00 | 0.00 | 0.00 | 79 | 1006.0 |
| 20260505083003 | 17 | 151 | 3.2 | 9.7 | 0.00 | 0.00 | 0.00 | 79 | 1006.0 |
| 20260505082003 | 17 | 152 | 4.8 | 12.9 | 0.00 | 0.00 | 0.00 | 78 | 1006.2 |
| 20260505081003 | 17 | 148 | 4.8 | 12.9 | 0.00 | 0.00 | 0.00 | 78 | 1006.2 |
| 20260505080216 | 17 | 150 | 6.4 | 16.1 | 0.00 | 0.00 | 0.00 | 77 | 1006.5 |
| 20260505075003 | 17 | 140 | 8.0 | 20.9 | 0.00 | 0.00 | 0.00 | 76 | 1006.3 |
| 20260505074003 | 17 | 144 | 4.8 | 11.3 | 0.00 | 0.00 | 0.00 | 77 | 1007.0 |
| 20260505073003 | 17 | 137 | 6.4 | 11.3 | 0.00 | 0.00 | 0.00 | 76 | 1006.6 |
| 20260505072218 | 17 | 141 | 4.8 | 11.3 | 0.00 | 0.00 | 0.00 | 76 | 1007.2 |
| 20260505071003 | 17 | 142 | 4.8 | 12.9 | 0.00 | 0.00 | 0.00 | 75 | 1007.4 |
| 20260505070003 | 18 | 143 | 6.4 | 12.9 | 0.00 | 0.00 | 0.00 | 75 | 1007.6 |
| 20260505065003 | 18 | 149 | 6.4 | 14.5 | 0.00 | 0.00 | 0.00 | 74 | 1007.7 |
| 20260505064003 | 18 | 146 | 6.4 | 14.5 | 0.00 | 0.00 | 0.00 | 75 | 1007.9 |
| 20260505063003 | 18 | 146 | 6.4 | 16.1 | 0.00 | 0.00 | 0.00 | 74 | 1007.9 |
| 20260505062003 | 18 | 140 | 8.0 | 14.5 | 0.00 | 0.00 | 0.00 | 74 | 1008.0 |
| 20260505061003 | 18 | 144 | 6.4 | 12.9 | 0.00 | 0.00 | 0.00 | 75 | 1007.9 |
| 20260505060003 | 18 | 145 | 6.4 | 11.3 | 0.00 | 0.00 | 0.00 | 74 | 1007.9 |
| 20260505055218 | 18 | 141 | 6.4 | 16.1 | 0.00 | 0.00 | 0.00 | 74 | 1008.2 |
| 20260505054003 | 18 | 138 | 6.4 | 12.9 | 0.00 | 0.00 | 0.00 | 74 | 1008.3 |
| 20260505053003 | 18 | 137 | 6.4 | 11.3 | 0.00 | 0.00 | 0.00 | 73 | 1008.6 |
| 20260505052003 | 18 | 138 | 6.4 | 11.3 | 0.00 | 0.00 | 0.00 | 73 | 1008.6 |
| 20260505051003 | 18 | 141 | 4.8 | 11.3 | 0.00 | 0.00 | 0.00 | 72 | 1008.7 |
| 20260505041003 | 19 | 145 | 4.8 | 9.7 | 0.00 | 0.00 | 0.00 | 70 | 1008.9 |
| 20260505040004 | 19 | 144 | 3.2 | 6.4 | 0.00 | 0.00 | 0.00 | 69 | 1008.9 |
| 20260505035217 | 20 | 142 | 3.2 | 6.4 | 0.00 | 0.00 | 0.00 | 69 | 1009.1 |
| 20260505034003 | 20 | 149 | 4.8 | 9.7 | 0.00 | 0.00 | 0.00 | 68 | 1009.2 |
| 20260505033217 | 20 | 148 | 3.2 | 6.4 | 0.00 | 0.00 | 0.00 | 68 | 1009.8 |
| 20260505032003 | 20 | 148 | 3.2 | 6.4 | 0.00 | 0.00 | 0.00 | 67 | 1009.8 |
| 20260505031003 | 20 | 147 | 3.2 | 9.7 | 0.00 | 0.00 | 0.00 | 67 | 1009.5 |
| 20260505030003 | 20 | 170 | 3.2 | 4.8 | 0.00 | 0.00 | 0.00 | 68 | 1009.3 |
| 20260505025004 | 20 | 164 | 3.2 | 6.4 | 0.00 | 0.00 | 0.00 | 67 | 1009.0 |
| 20260505024003 | 20 | 170 | 3.2 | 6.4 | 0.00 | 0.00 | 0.00 | 67 | 1008.4 |
| 20260505023003 | 20 | 168 | 3.2 | 9.7 | 0.00 | 0.00 | 0.00 | 67 | 1008.4 |
| 20260505022003 | 20 | 168 | 3.2 | 6.4 | 0.00 | 0.00 | 0.00 | 67 | 1008.3 |
| 20260505021218 | 20 | 169 | 3.2 | 6.4 | 0.00 | 0.00 | 0.00 | 67 | 1008.3 |
| 20260505020218 | 20 | 173 | 3.2 | 6.4 | 0.00 | 0.00 | 0.00 | 67 | 1008.0 |
| 20260505015003 | 21 | 170 | 3.2 | 6.4 | 0.00 | 0.00 | 0.00 | 65 | 1008.0 |
| 20260505014218 | 21 | 165 | 3.2 | 4.8 | 0.00 | 0.00 | 0.00 | 65 | 1007.8 |
| 20260505013003 | 21 | 169 | 3.2 | 9.7 | 0.00 | 0.00 | 0.00 | 65 | 1007.6 |
| 20260505012218 | 21 | 177 | 3.2 | 12.9 | 0.00 | 0.00 | 0.00 | 66 | 1007.7 |
| 20260505011218 | 21 | 177 | 3.2 | 6.4 | 0.00 | 0.00 | 0.00 | 65 | 1007.7 |
| 20260505010004 | 21 | 171 | 3.2 | 9.7 | 0.00 | 0.00 | 0.00 | 63 | 1007.6 |
| 20260505005004 | 22 | 174 | 4.8 | 14.5 | 0.00 | 0.00 | 0.00 | 62 | 1007.9 |
| 20260505004003 | 22 | 179 | 6.4 | 16.1 | 0.00 | 0.00 | 0.00 | 61 | 1008.0 |
| 20260505003003 | 22 | 190 | 8.0 | 17.7 | 0.00 | 0.00 | 0.00 | 60 | 1007.9 |
| 20260505002003 | 22 | 186 | 8.0 | 24.1 | 0.00 | 0.00 | 0.00 | 60 | 1007.4 |
| 20260505001003 | 22 | 185 | 6.4 | 17.7 | 0.00 | 0.00 | 0.00 | 60 | 1007.5 |
| 20260505000003 | 22 | 182 | 6.4 | 24.1 | 0.00 | 0.00 | 0.00 | 59 | 1007.6 |
| 20260504235003 | 23 | 176 | 6.4 | 14.5 | 0.00 | 0.00 | 0.00 | 58 | 1007.8 |
| 20260504234003 | 23 | 181 | 6.4 | 17.7 | 0.00 | 0.00 | 0.00 | 58 | 1008.1 |
| 20260504233003 | 23 | 181 | 6.4 | 22.5 | 0.00 | 0.00 | 0.00 | 57 | 1008.4 |
| 20260504232003 | 24 | 182 | 8.0 | 20.9 | 0.00 | 0.00 | 0.00 | 55 | 1008.3 |
| 20260504231217 | 24 | 182 | 9.7 | 25.7 | 0.00 | 0.00 | 0.00 | 55 | 1008.1 |
| 20260504230003 | 25 | 196 | 11.3 | 29.0 | 0.00 | 0.00 | 0.00 | 53 | 1008.5 |
| 20260504225003 | 25 | 186 | 11.3 | 25.7 | 0.00 | 0.00 | 0.00 | 52 | 1008.6 |
| 20260504224217 | 25 | 185 | 9.7 | 24.1 | 0.00 | 0.00 | 0.00 | 52 | 1008.8 |
| 20260504223003 | 26 | 184 | 9.7 | 29.0 | 0.00 | 0.00 | 0.00 | 51 | 1009.1 |
| 20260504222003 | 26 | 206 | 8.0 | 24.1 | 0.00 | 0.00 | 0.00 | 50 | 1008.6 |
| 20260504221003 | 26 | 181 | 9.7 | 22.5 | 0.00 | 0.00 | 0.00 | 50 | 1008.4 |
| 20260504220003 | 26 | 201 | 9.7 | 25.7 | 0.00 | 0.00 | 0.00 | 50 | 1008.4 |
| 20260504215003 | 26 | 185 | 9.7 | 29.0 | 0.00 | 0.00 | 0.00 | 50 | 1008.7 |
| 20260504214003 | 25 | 188 | 9.7 | 24.1 | 0.00 | 0.00 | 0.00 | 52 | 1008.9 |
| 20260504213003 | 26 | 196 | 11.3 | 41.8 | 0.00 | 0.00 | 0.00 | 49 | 1009.3 |
| 20260504212003 | 26 | 191 | 12.9 | 38.6 | 0.00 | 0.00 | 0.00 | 49 | 1008.9 |
| 20260504211003 | 26 | 184 | 11.3 | 29.0 | 0.00 | 0.00 | 0.00 | 49 | 1008.6 |
| 20260504210004 | 27 | 194 | 9.7 | 37.0 | 0.00 | 0.00 | 0.00 | 49 | 1009.1 |
| 20260504205003 | 26 | 200 | 14.5 | 35.4 | 0.00 | 0.00 | 0.00 | 49 | 1009.1 |
| 20260504204003 | 26 | 198 | 11.3 | 24.1 | 0.00 | 0.00 | 0.00 | 51 | 1009.1 |
| 20260504203003 | 26 | 191 | 12.9 | 33.8 | 0.00 | 0.00 | 0.00 | 49 | 1009.3 |
| 20260504202003 | 26 | 192 | 12.9 | 30.6 | 0.00 | 0.00 | 0.00 | 49 | 1009.6 |
| 20260504201003 | 26 | 181 | 12.9 | 33.8 | 0.00 | 0.00 | 0.00 | 50 | 1009.7 |
| 20260504200218 | 26 | 185 | 9.7 | 27.4 | 0.00 | 0.00 | 0.00 | 51 | 1009.9 |
| 20260504195003 | 26 | 199 | 11.3 | 30.6 | 0.00 | 0.00 | 0.00 | 52 | 1010.0 |
| 20260504194003 | 26 | 190 | 9.7 | 27.4 | 0.00 | 0.00 | 0.00 | 51 | 1010.0 |
| 20260504193218 | 26 | 194 | 12.9 | 35.4 | 0.00 | 0.00 | 0.00 | 49 | 1010.4 |
| 20260504192003 | 26 | 188 | 9.7 | 24.1 | 0.00 | 0.00 | 0.00 | 50 | 1010.8 |
| 20260504191003 | 26 | 181 | 12.9 | 30.6 | 0.00 | 0.00 | 0.00 | 51 | 1011.4 |
| 20260504190004 | 26 | 194 | 12.9 | 27.4 | 0.00 | 0.00 | 0.00 | 51 | 1011.0 |
| 20260504185004 | 26 | 202 | 11.3 | 35.4 | 0.00 | 0.00 | 0.00 | 50 | 1011.2 |
| 20260504184218 | 26 | 187 | 12.9 | 33.8 | 0.00 | 0.00 | 0.00 | 48 | 1011.3 |
| 20260504183003 | 26 | 191 | 11.3 | 33.8 | 0.00 | 0.00 | 0.00 | 50 | 1011.1 |
| 20260504182003 | 26 | 226 | 11.3 | 30.6 | 0.00 | 0.00 | 0.00 | 51 | 1011.2 |
| 20260504181003 | 26 | 206 | 12.9 | 29.0 | 0.00 | 0.00 | 0.00 | 49 | 1011.3 |
| 20260504180003 | 25 | 187 | 12.9 | 30.6 | 0.00 | 0.00 | 0.00 | 51 | 1011.5 |
| 20260504175217 | 26 | 192 | 11.3 | 35.4 | 0.00 | 0.00 | 0.00 | 50 | 1011.6 |
| 20260504174217 | 26 | 188 | 11.3 | 38.6 | 0.00 | 0.00 | 0.00 | 49 | 1011.8 |
| 20260504173217 | 26 | 200 | 12.9 | 40.2 | 0.00 | 0.00 | 0.00 | 50 | 1011.9 |
| 20260504172003 | 26 | 188 | 14.5 | 37.0 | 0.00 | 0.00 | 0.00 | 49 | 1012.1 |
| 20260504171003 | 26 | 212 | 9.7 | 33.8 | 0.00 | 0.00 | 0.00 | 49 | 1012.4 |
| 20260504151003 | 23 | 189 | 9.7 | 22.5 | 0.00 | 0.00 | 0.00 | 57 | 1013.1 |
| 20260504141003 | 21 | 197 | 4.8 | 16.1 | 0.00 | 0.00 | 0.00 | 66 | 1013.2 |
| 20260504130217 | 17 | 186 | 3.2 | 6.4 | 0.00 | 0.00 | 0.00 | 76 | 1013.2 |